Regional Weather Roundup
Issued by NWS Goodland, KS

Home | Current Version | Previous Version | Text Only | Print | Product List | Glossary Off
Versions: 1 2 3 4 5 6 7 8 9 10 11 12 13 14 15 16 17 18 19 20 21 22 23 24 25 26 27 28 29 30 31 32 33 34 35 36 37 38 39 40 41 42 43 44 45 46 47 48 49 50

000
ASUS43 KGLD 191808
RWRGLD

GOODLAND FORECAST AREA HOURLY WEATHER ROUNDUP
NATIONAL WEATHER SERVICE GOODLAND KS
1100 AM MST SUN FEB 19 2017

...OFFICIAL OBSERVATIONS...

CITY           SKY/WX    TMP DP  RH WIND       PRES   REMARKS
GOODLAND KS    CLOUDY    67  37  33 S24G31    29.71F
HILL CITY KS   SUNNY     63  48  58 S16G24    29.80F
IMPERIAL NEB   MOSUNNY   55  37  50 S6        29.71F
MCCOOK NEB     MOSUNNY   59  46  62 S10G21    29.74F
AKRON CO       CLOUDY    61  28  28 S9        29.69F
BURLINGTON CO  CLOUDY    66  35  31 S28G39    29.71F
LIMON CO       CLOUDY    59  29  31 S18G28    29.71F
$$

...UNOFFICIAL OBSERVATIONS...

CITY           SKY/WX    TMP DP  RH WIND       PRES   REMARKS
LENORA KS        N/A     62  32  32 S16         N/A
NORTON KS      SUNNY     64  43  45 S14G23    29.77F
SHARON SPRINGS   N/A     61  42  49 S23G31      N/A
TRENTON NEB      N/A     57  32  39 S9          N/A
KIT CARSON CO    N/A     59  37  44 MISG        N/A
YUMA CO        FAIR      61  32  33 S8        29.69F
$$



USA.gov is the U.S. government's official web portal to all federal, state and local government web resources and services.